Back to catalog

STARLINK-31094

AliveCommunicationsVLEO
NORAD 58593·PAYLOAD·🇺🇸 United States

Launched Dec 19, 2023 from Cape Canaveral Space Force Station

Loading…

Next Passes (next 24 hours)

TLE

FreshSource: CelesTrak SupGP

Epoch: Sep 14, 2026, 21:44 UTC

1 58593C 23200E   26257.90604167 -.00010215  00000+0 -36990-3 0  2579
2 58593  43.0002 180.1632 0001412 268.0439 328.8037 15.27590019    13

Track STARLINK-31094 in real time with AllMySat

Download on the App Store